User: anonymous
Location: Ostrava
(49.8330°N, 18.2830°E)
Time: 23:38:31
(UTC+02:00)
Language:

Vanguard 2 Rocket - Orbit

View from above orbital plane
View from above orbital plane
View from above satellite
View from above satellite

Ground track
Ground track

The orbit data is extracted from the following two-line orbital elements,

1 00012U 59001B   14211.55204110  .00000482  00000-0  26985-3 0  8812
2 00012 032.9066 306.0381 1671612 303.2418 041.8718 11.43326436276396
Epoch (UTC): 30 July 2014 13:14:56
Eccentricity: 0.1671612
inclination: 32.9066°
perigee height: 554 km
apogee height: 3336 km
right ascension of ascending node: 306.0381°
argument of perigee: 303.2418°
revolutions per day: 11.43326436
mean anomaly at epoch: 41.8718°
orbit number at epoch: 27639

The dashed part of the orbit path shows where the satellite is in the earth's shadow,  

DLR